Location: Boston
(42.3580°N, 71.0600°W)
Time: 14:17:22
(UTC-05:00)

Envisat - Pass Details

Date: 07 October 2017
Orbit: 764 x 766 km, 98.2° (Epoch: 10 December)

Event Time Altitude Azimuth Distance (km) Brightness Sun altitude
Exits shadow 19:38:09 26° 92° (E) 1,463 3.8 -16.2°
Maximum altitude 19:39:23 30° 67° (ENE) 1,365 3.8 -16.4°
Drops below altitude 10° 19:43:45 10° 8° (N) 2,314 5.5 -17.2°
Sets 19:46:18 0° 358° (N) 3,245 6.4 -17.7°
